Simultaneous Nadir Overpasses (SNOs) Predictions

Prediction of SNOs between GOES-17 and LANDSAT-8 Satellite Orbit:

Table of predicted SNOs for the next 14.0 days since TLE Epoch: 3/4/2023
Index Date Time (GOES-17) GOES-17 Lat,Lon LANDSAT-8 Lat,Lon Distance(km) Time Diff (sec)
1 03/04/2023 17:10:03 -0.00,-104.71 0.03,-104.75 5.42 80
2 03/06/2023 17:00:31 -0.00,-104.72 -0.65,-101.80 331.98 80
3 03/07/2023 05:21:54 0.00,-104.70 -0.50,-106.99 260.81 80
4 03/09/2023 05:07:01 0.00,-104.70 0.14,-104.03 76.57 80
5 03/11/2023 04:54:47 0.01,-104.71 0.76,-101.06 414.07 80
6 03/11/2023 17:16:02 -0.00,-104.73 0.33,-106.22 169.40 80
7 03/13/2023 17:06:28 -0.00,-104.74 -0.32,-103.26 167.86 80
8 03/14/2023 05:27:51 0.00,-104.71 -0.80,-108.45 424.62 80
9 03/16/2023 05:15:36 0.00,-104.71 -0.17,-105.48 87.73 80
